Location: Wildcat Hills Observatory
(41.6350°N, 103.6812°W)
Time: 06:01:46
(UTC-07:00)

Cosmos 1634 Rocket - Visible Passes

Search period start: 17 January 2017 00:00
Search period end: 27 January 2017 00:00
Orbit: 960 x 992 km, 82.9° (Epoch: 17 January)

Date Brightness Start Highest point End Pass type
(mag) Time Alt. Az. Time Alt. Az. Time Alt. Az.
17 Jan 4.8 06:37:25 10° S 06:43:35 60° E 06:49:45 10° NNE visible
17 Jan 4.2 17:33:18 10° N 17:39:17 49° ENE 17:45:14 10° SSE visible
17 Jan 6.1 19:19:26 10° NNW 19:24:18 25° W 19:29:07 10° SW visible
18 Jan 6.8 05:21:03 10° ESE 05:24:31 16° E 05:28:00 10° NE visible
18 Jan 4.0 17:58:42 10° N 18:04:57 87° E 18:11:06 10° S visible
18 Jan 6.9 19:46:44 10° NW 19:49:22 13° WNW 19:52:00 10° WSW visible
19 Jan 6.1 05:44:24 10° SE 05:49:39 29° E 05:54:53 10° NNE visible
19 Jan 4.8 18:24:25 10° NNW 18:30:24 52° W 18:36:20 10° SSW visible
20 Jan 5.0 06:08:54 10° SSE 06:14:57 51° E 06:21:00 10° NNE visible
20 Jan 6.0 18:50:32 10° NNW 18:55:42 29° W 19:00:50 10° SW visible
21 Jan 6.9 04:53:17 10° ESE 04:55:59 13° E 04:58:41 10° NE visible
21 Jan 4.1 06:34:06 10° S 06:40:25 89° W 06:46:43 10° N visible
21 Jan 4.0 17:30:02 10° N 17:36:15 76° E 17:42:24 10° SSE visible
21 Jan 6.8 19:17:25 10° NW 19:20:49 15° W 19:24:13 10° WSW visible
22 Jan 6.3 05:16:09 10° SE 05:21:04 25° E 05:25:58 10° NNE visible
22 Jan 4.6 17:55:41 10° NNW 18:01:45 60° W 18:07:47 10° S visible
23 Jan 5.2 05:40:26 10° SSE 05:46:19 44° E 05:52:12 10° NNE visible
23 Jan 5.8 18:21:41 10° NNW 18:27:05 33° W 18:32:29 10° SSW visible
24 Jan 7.1 04:26:01 10° E 04:27:27 11° ENE 04:28:53 10° ENE visible
24 Jan 4.2 06:05:28 10° S 06:11:45 80° E 06:18:01 10° N visible
24 Jan 6.7 18:48:17 10° NW 18:52:16 18° W 18:56:13 10° WSW visible
25 Jan 6.4 04:47:59 10° SE 04:52:30 21° E 04:57:00 10° NE visible
25 Jan 4.1 06:31:10 10° SSW 06:37:20 58° W 06:43:31 10° N visible
25 Jan 4.4 17:26:57 10° NNW 17:33:06 70° W 17:39:12 10° S visible
26 Jan 5.4 05:12:00 10° SSE 05:17:43 38° E 05:23:24 10° NNE visible
26 Jan 5.6 17:52:51 10° NNW 17:58:28 38° W 18:04:05 10° SSW visible
